User: anonymous   Login
Location: Dompnac
(44.5644°N, 4.1026°E)
Time: 21:07:31
(UTC+00:00)
Language:

Cosmos 1634 Rocket - Orbit

View from above orbital plane
View from above orbital plane
View from above satellite
View from above satellite

Ground track
Ground track

The orbit data is extracted from the following two-line orbital elements,

1 15598U 85022B   21134.26998171 -.00000011  00000-0 -26681-4 0  9990
2 15598  82.9341 126.3489 0023548  78.6212 293.1125 13.76590003816561
Epoch (UTC): 14 May 2021 06:28:46
Eccentricity: 0.0023548
inclination: 82.9341°
perigee height: 958 km
apogee height: 993 km
right ascension of ascending node: 126.3489°
argument of perigee: 78.6212°
revolutions per day: 13.76590003
mean anomaly at epoch: 293.1125°
orbit number at epoch: 81656

The dashed part of the orbit path shows where the satellite is in the earth's shadow,  

DLR